This is the latest recevied weather packets stored in our database for station/object N3LF. If no packets are shown the sender has not sent any weather packets the latest 10 day(s).
| Time | Temp. | Humidity | Pressure | Rain* | Wind** | Luminosity | Snow |
|---|---|---|---|---|---|---|---|
| 1788021117 | 30° C | 69% | 1023.2 hPa | 0 mm | - | 539 W/m² | - |
| 1788020812 | 29.44° C | 68% | 1023.2 hPa | 0 mm | - | 654 W/m² | - |
| 1788020507 | 30° C | 65% | 1023 hPa | 0 mm | - | 638 W/m² | - |
| 1788020203 | 29.44° C | 65% | 1022.9 hPa | 0 mm | - | 614 W/m² | - |
| 1788019899 | 30° C | 67% | 1023.2 hPa | 0 mm | - | 503 W/m² | - |
| 1788019599 | 28.89° C | 75% | 1023.2 hPa | 0 mm | - | 541 W/m² | - |
| 1788019298 | 29.44° C | 72% | 1023.3 hPa | 0 mm | - | 479 W/m² | - |
| 1788018996 | 30° C | 72% | 1023.3 hPa | 0 mm | - | 491 W/m² | - |
| 1788018691 | 28.89° C | 68% | 1023.4 hPa | 0 mm | - | 405 W/m² | - |
| 1788018390 | 28.33° C | 74% | 1023.3 hPa | 0 mm | - | 470 W/m² | - |
| 1788018085 | 28.33° C | 73% | 1023.3 hPa | 0 mm | - | 570 W/m² | - |
| 1788017782 | 30° C | 70% | 1023.3 hPa | 0 mm | - | 547 W/m² | - |
| 1788017478 | 28.33° C | 74% | 1023.2 hPa | 0 mm | - | 539 W/m² | - |
| 1788017175 | 28.33° C | 74% | 1023.2 hPa | 0 mm | - | 526 W/m² | - |
| 1788016874 | 28.33° C | 73% | 1023.2 hPa | 0 mm | - | 516 W/m² | - |
| 1788016573 | 27.22° C | 73% | 1023.3 hPa | 0 mm | - | 505 W/m² | - |
| 1788016268 | 27.22° C | 77% | 1023.2 hPa | 0 mm | - | 498 W/m² | - |
| 1788015967 | 26.67° C | 78% | 1023.1 hPa | 0 mm | - | 487 W/m² | - |
| 1788015662 | 27.78° C | 75% | 1023 hPa | 0 mm | - | 475 W/m² | - |
| 1788015361 | 28.33° C | 71% | 1023.4 hPa | 0 mm | - | 464 W/m² | - |
| 1788015056 | 27.22° C | 77% | 1023.2 hPa | 0 mm | - | 447 W/m² | - |
| 1788014755 | 27.22° C | 77% | 1023.1 hPa | 0 mm | - | 433 W/m² | - |
| 1788014451 | 26.11° C | 81% | 1023.1 hPa | 0 mm | - | 424 W/m² | - |
| 1788014145 | 25.56° C | 81% | 1023 hPa | 0 mm | - | 412 W/m² | - |
| 1788013845 | 25° C | 83% | 1023.1 hPa | 0 mm | - | 399 W/m² | - |
* Rain latest hour (hover to see other rain measurements)
** Current wind speed in m/s (hover to see current wind gust speed)